This is the latest recevied weather packets stored in our database for station/object DG3RAP-11. If no packets are shown the sender has not sent any weather packets the latest 10 day(s).
| Time | Temp. | Humidity | Pressure | Rain* | Wind** | Luminosity | Snow |
|---|---|---|---|---|---|---|---|
| 1777451224 | 13.33° C | 38% | 1021.7 hPa | 0 mm | - | - | - |
| 1777450683 | 12.22° C | 37% | 1021.9 hPa | 0 mm | - | - | - |
| 1777450143 | 12.22° C | 39% | 1021.8 hPa | 0 mm | - | - | - |
| 1777449603 | 12.22° C | 40% | 1021.9 hPa | 0 mm | - | - | - |
| 1777449243 | 12.22° C | 39% | 1021.8 hPa | 0 mm | - | - | - |
| 1777448703 | 11.67° C | 41% | 1021.7 hPa | 0 mm | - | - | - |
| 1777448163 | 11.67° C | 40% | 1021.8 hPa | 0 mm | - | - | - |
| 1777447623 | 11.11° C | 41% | 1021.5 hPa | 0 mm | - | - | - |
| 1777447083 | 10.56° C | 43% | 1021.8 hPa | 0 mm | - | - | - |
| 1777446544 | 10.56° C | 43% | 1021.6 hPa | 0 mm | - | - | - |
| 1777446003 | 10.56° C | 44% | 1021.5 hPa | 0 mm | - | - | - |
| 1777445643 | 10.56° C | 43% | 1021.5 hPa | 0 mm | - | - | - |
| 1777445104 | 10.56° C | 44% | 1021.4 hPa | 0 mm | - | - | - |
| 1777444563 | 9.44° C | 46% | 1021.4 hPa | 0 mm | - | - | - |
| 1777444023 | 9.44° C | 47% | 1021.3 hPa | 0 mm | - | - | - |
| 1777443483 | 8.33° C | 49% | 1021.3 hPa | 0 mm | - | - | - |
| 1777442943 | 8.33° C | 51% | 1021.4 hPa | 0 mm | - | - | - |
| 1777442404 | 8.33° C | 50% | 1021.4 hPa | 0 mm | - | - | - |
| 1777442043 | 7.78° C | 51% | 1021.1 hPa | 0 mm | - | - | - |
| 1777441503 | 7.78° C | 52% | 1021.2 hPa | 0 mm | - | - | - |
| 1777440963 | 7.22° C | 52% | 1021.1 hPa | 0 mm | - | - | - |
| 1777440423 | 6.67° C | 53% | 1021.1 hPa | 0 mm | - | - | - |
| 1777439883 | 6.67° C | 53% | 1020.9 hPa | 0 mm | - | - | - |
| 1777439343 | 6.67° C | 54% | 1020.8 hPa | 0 mm | - | - | - |
| 1777438803 | 6.11° C | 55% | 1020.8 hPa | 0 mm | - | - | - |
* Rain latest hour (hover to see other rain measurements)
** Current wind speed in m/s (hover to see current wind gust speed)